Tiempo cada hora Gogolevskiy

Hoy, 25 Junio, Viernes

Tiempo Temperatura Precipitaciones Viento Presión Humedad
00:00 +26°C° 0 mm 3 mps 753 mmHg 28%
01:00 +26°C° 0 mm 3 mps 753 mmHg 30%
02:00 +25°C° 0 mm 3 mps 753 mmHg 31%
03:00 +25°C° 0 mm 3 mps 753 mmHg 33%
04:00 +25°C° 0 mm 3 mps 753 mmHg 42%
05:00 +25°C° 0 mm 3 mps 753 mmHg 52%
06:00 +25°C° 0 mm 3 mps 753 mmHg 62%
07:00 +27°C° 0 mm 3 mps 753 mmHg 55%
08:00 +29°C° 0 mm 4 mps 753 mmHg 48%
09:00 +33°C° 0 mm 4 mps 753 mmHg 41%
10:00 +34°C° 0 mm 4 mps 753 mmHg 35%
11:00 +35°C° 0 mm 4 mps 753 mmHg 30%
12:00 +37°C° 0 mm 4 mps 753 mmHg 24%
13:00 +37°C° 0 mm 4 mps 753 mmHg 24%
14:00 +37°C° 0 mm 4 mps 752 mmHg 23%
15:00 +38°C° 0 mm 4 mps 752 mmHg 23%
16:00 +37°C° 0 mm 3 mps 752 mmHg 26%
17:00 +37°C° 0 mm 2 mps 752 mmHg 29%
18:00 +37°C° 0 mm 2 mps 751 mmHg 32%
19:00 +34°C° 0 mm 3 mps 751 mmHg 38%
20:00 +32°C° 0 mm 4 mps 751 mmHg 44%
21:00 +29°C° 0 mm 5 mps 751 mmHg 50%
22:00 +28°C° 0 mm 5 mps 751 mmHg 50%
23:00 +28°C° 0 mm 5 mps 751 mmHg 51%

Mañana, 26 Junio, Sábado

Tiempo Temperatura Precipitaciones Viento Presión Humedad
00:00 +28°C° 0 mm 5 mps 751 mmHg 51%
01:00 +27°C° 0 mm 5 mps 751 mmHg 53%
02:00 +27°C° 0 mm 5 mps 751 mmHg 55%
03:00 +26°C° 0 mm 5 mps 750 mmHg 56%
04:00 +26°C° 0 mm 5 mps 751 mmHg 59%
05:00 +26°C° 0 mm 5 mps 751 mmHg 61%
06:00 +26°C° 0 mm 5 mps 751 mmHg 64%
07:00 +28°C° 0 mm 5 mps 751 mmHg 58%
08:00 +30°C° 0 mm 5 mps 751 mmHg 52%
09:00 +33°C° 0 mm 6 mps 751 mmHg 47%
10:00 +34°C° 0 mm 6 mps 750 mmHg 41%
11:00 +36°C° 0 mm 6 mps 750 mmHg 35%
12:00 +39°C° 0 mm 5 mps 750 mmHg 29%
13:00 +39°C° 0 mm 6 mps 750 mmHg 26%
14:00 +40°C° 0 mm 6 mps 749 mmHg 24%
15:00 +40°C° 0 mm 6 mps 749 mmHg 21%
16:00 +38°C° 0 mm 4 mps 749 mmHg 26%
17:00 +37°C° 0 mm 3 mps 749 mmHg 31%
18:00 +36°C° 0 mm 2 mps 749 mmHg 36%
19:00 +34°C° 0 mm 2 mps 749 mmHg 38%
20:00 +32°C° 0 mm 2 mps 749 mmHg 40%
21:00 +30°C° 0 mm 2 mps 749 mmHg 42%
22:00 +29°C° 0.1 mm 2 mps 749 mmHg 45%
23:00 +28°C° 0.1 mm 3 mps 749 mmHg 49%

Pasado mañana, 27 Junio, Domingo

Tiempo Temperatura Precipitaciones Viento Presión Humedad
00:00 +27°C° 0.1 mm 3 mps 749 mmHg 53%
01:00 +26°C° 0 mm 3 mps 749 mmHg 55%
02:00 +26°C° 0 mm 3 mps 749 mmHg 56%
03:00 +25°C° 0 mm 3 mps 749 mmHg 58%
04:00 +26°C° 0 mm 2 mps 749 mmHg 58%
05:00 +26°C° 0 mm 2 mps 749 mmHg 58%
06:00 +26°C° 0 mm 2 mps 749 mmHg 57%
07:00 +28°C° 0 mm 3 mps 749 mmHg 51%
08:00 +30°C° 0 mm 4 mps 749 mmHg 44%
09:00 +33°C° 0 mm 4 mps 749 mmHg 38%
10:00 +34°C° 0 mm 4 mps 749 mmHg 36%
11:00 +35°C° 0 mm 4 mps 749 mmHg 34%
12:00 +35°C° 0 mm 4 mps 749 mmHg 32%
13:00 +35°C° 0 mm 4 mps 749 mmHg 33%
14:00 +35°C° 0 mm 4 mps 750 mmHg 35%
15:00 +35°C° 0 mm 4 mps 750 mmHg 36%
16:00 +35°C° 0 mm 3 mps 749 mmHg 38%
17:00 +35°C° 0 mm 2 mps 749 mmHg 40%
18:00 +34°C° 0 mm 1 mps 749 mmHg 42%
19:00 +33°C° 0 mm 3 mps 749 mmHg 46%
20:00 +30°C° 0 mm 4 mps 749 mmHg 50%
21:00 +28°C° 0 mm 5 mps 750 mmHg 54%
22:00 +26°C° 0.2 mm 4 mps 750 mmHg 60%
23:00 +25°C° 0.2 mm 3 mps 750 mmHg 67%

28 Junio, Lunes

Tiempo Temperatura Precipitaciones Viento Presión Humedad
00:00 +23°C° 0.2 mm 2 mps 750 mmHg 74%
01:00 +23°C° 0.1 mm 2 mps 750 mmHg 75%
02:00 +23°C° 0.1 mm 2 mps 750 mmHg 77%
03:00 +23°C° 0.1 mm 1 mps 750 mmHg 78%
04:00 +24°C° 0 mm 1 mps 750 mmHg 77%
05:00 +24°C° 0 mm 1 mps 750 mmHg 75%
06:00 +25°C° 0 mm 1 mps 749 mmHg 74%
07:00 +27°C° 0 mm 2 mps 750 mmHg 69%
08:00 +28°C° 0 mm 3 mps 750 mmHg 63%
09:00 +30°C° 0 mm 4 mps 750 mmHg 58%
10:00 +32°C° 0 mm 4 mps 750 mmHg 54%
11:00 +33°C° 0 mm 4 mps 750 mmHg 50%
12:00 +34°C° 0 mm 4 mps 750 mmHg 46%
13:00 +35°C° 0 mm 4 mps 750 mmHg 45%
14:00 +35°C° 0 mm 4 mps 750 mmHg 44%
15:00 +35°C° 0 mm 4 mps 750 mmHg 42%
16:00 +34°C° 0 mm 4 mps 750 mmHg 46%
17:00 +33°C° 0 mm 4 mps 749 mmHg 50%
18:00 +33°C° 0 mm 4 mps 749 mmHg 54%
19:00 +30°C° 0 mm 4 mps 749 mmHg 58%
20:00 +29°C° 0 mm 3 mps 749 mmHg 63%
21:00 +27°C° 0 mm 3 mps 750 mmHg 67%
22:00 +26°C° 0 mm 3 mps 750 mmHg 71%
23:00 +25°C° 0 mm 3 mps 750 mmHg 74%

29 Junio, Martes

Tiempo Temperatura Precipitaciones Viento Presión Humedad
00:00 +24°C° 0 mm 3 mps 750 mmHg 78%
01:00 +24°C° 0 mm 3 mps 750 mmHg 81%
02:00 +22°C° 0 mm 3 mps 750 mmHg 85%
03:00 +21°C° 0 mm 3 mps 749 mmHg 89%
04:00 +22°C° 0 mm 3 mps 750 mmHg 87%
05:00 +22°C° 0 mm 3 mps 750 mmHg 86%
06:00 +24°C° 0 mm 3 mps 750 mmHg 84%
07:00 +25°C° 0 mm 3 mps 750 mmHg 78%
08:00 +27°C° 0 mm 4 mps 750 mmHg 72%
09:00 +28°C° 0 mm 4 mps 750 mmHg 66%
10:00 +29°C° 0.2 mm 4 mps 750 mmHg 62%
11:00 +30°C° 0.2 mm 5 mps 750 mmHg 58%
12:00 +30°C° 0.2 mm 5 mps 750 mmHg 55%
13:00 +30°C° 0.4 mm 5 mps 750 mmHg 56%
14:00 +29°C° 0.4 mm 4 mps 750 mmHg 57%
15:00 +29°C° 0.4 mm 4 mps 750 mmHg 58%
16:00 +29°C° 0.1 mm 3 mps 750 mmHg 58%
17:00 +29°C° 0.1 mm 2 mps 750 mmHg 58%
18:00 +29°C° 0.1 mm 2 mps 750 mmHg 57%
19:00 +27°C° 0 mm 2 mps 751 mmHg 61%
20:00 +26°C° 0 mm 2 mps 751 mmHg 65%
21:00 +25°C° 0 mm 2 mps 751 mmHg 68%
22:00 +25°C° 0 mm 2 mps 751 mmHg 68%
23:00 +24°C° 0 mm 2 mps 751 mmHg 68%

30 Junio, Miércoles

Tiempo Temperatura Precipitaciones Viento Presión Humedad
00:00 +24°C° 0 mm 2 mps 751 mmHg 67%
01:00 +24°C° 0 mm 2 mps 751 mmHg 67%
02:00 +23°C° 0 mm 2 mps 751 mmHg 66%
03:00 +23°C° 0 mm 1 mps 751 mmHg 66%
04:00 +23°C° 0 mm 2 mps 751 mmHg 68%
05:00 +23°C° 0 mm 2 mps 751 mmHg 69%
06:00 +23°C° 0 mm 2 mps 752 mmHg 71%
07:00 +24°C° 0 mm 2 mps 752 mmHg 64%
08:00 +26°C° 0 mm 2 mps 752 mmHg 57%
09:00 +27°C° 0 mm 3 mps 752 mmHg 50%
10:00 +28°C° 0 mm 3 mps 752 mmHg 47%
11:00 +29°C° 0 mm 4 mps 752 mmHg 44%
12:00 +30°C° 0 mm 4 mps 752 mmHg 41%
13:00 +29°C° 0 mm 4 mps 752 mmHg 43%
14:00 +28°C° 0 mm 4 mps 752 mmHg 46%
15:00 +27°C° 0 mm 4 mps 752 mmHg 49%
16:00 +28°C° 0 mm 4 mps 752 mmHg 49%
17:00 +28°C° 0 mm 4 mps 752 mmHg 48%
18:00 +28°C° 0 mm 4 mps 752 mmHg 48%
19:00 +26°C° 0 mm 4 mps 752 mmHg 54%
20:00 +24°C° 0 mm 3 mps 752 mmHg 61%
21:00 +21°C° 0 mm 2 mps 753 mmHg 67%
22:00 +21°C° 0 mm 2 mps 753 mmHg 69%
23:00 +20°C° 0 mm 2 mps 753 mmHg 71%
Mostrar más

Necesitamos Su Consentimiento

Meteoprog y nuestros Proveedores de Servicios pueden almacenar y acceder a sus datos personales como cookies, identificadores de dispositivo u otras tecnologías similares de su dispositivo y procesar dichos datos para personalizar contenido y anuncios, además de ofrecer funciones de redes sociales y analizar el tráfico.

  • Almacenar y/o acceder a información en su dispositivo

    Se puede almacenar o acceder a cookies, identificadores de dispositivo u otra información de su dispositivo para los fines anteriormente indicados.

  • Anuncios y contenido personalizados, medición de anuncios y contenido, percepciones del público, y desarrollo de productos

    Los anuncios y el contenido pueden personalizarse en base a su perfil. Se pueden añadir más datos para personalizar mejor los anuncios y contenidos. Se puede medir el rendimiento de los anuncios y contenidos. Se puede obtener la percepción sobre el público que ha visto los anuncios y contenidos. Dichos datos pueden usarse para desarrollar o mejorar la experiencia del usuario, sistemas y software.

Al hacer clic en ‘Estoy De Acuerdo’ usted permitirá el uso de las cookies, identificadores de dispositivo, balizas web u otras tecnologías similares indicadas. Su configuración puede cambiarse desde el navegador de su dispositivo.

Para ciertos fines, los intereses legítimos pueden ser considerados por encima del consentimiento. Puede leer más sobre ello en nuestra Política de Privacidad y Cookies.